Home > Weather > Dawson Creek > Past weeks

Flag for Canada Weather for the Past 2 Weeks in Dawson Creek, British Columbia, Canada

Now
36 °F

Broken clouds.


Feels Like: 24 °F
Forecast: 23 / 34 °F
Wind: 24 mph from West

Location: Dawson Creek Airport

Current Time: Feb 6, 2016 at 12:01:58 PM

Latest Report: Feb 6, 2016 at 11:00 AM


Visibility: 9 mi

Pressure: 29.87 "Hg (27.49 "Hg at 668m altitude)

Humidity: 52%

Dew point: 19 °F

Location of Dawson CreekLocation

Historic Weather in Dawson Creek — Graph

°F

Dawson Creek Temperature Yesterday

Maximum temperature yesterday: 46 °F (at 1:00 PM)
Minimum temperature yesterday: 34 °F (at 10:00 AM)
Average temperature yesterday: 40 °F

High & Low Weather Summary for the Past Weeks

 TemperatureHumidityPressure
High46 °F (Jan 28, 12:00 PM)100% (Jan 22, 6:00 PM)30.21 "Hg (Jan 22, 6:00 PM)
Low-8 °F (Jan 24, 9:59 AM)48% (Feb 6, 7:00 AM)29.29 "Hg (Jan 28, 12:00 PM)
Average24 °F79%29.85 "Hg
* Reported Jan 22 11:00 AM — Feb 6 11:00 AM, Dawson Creek, Weather by CustomWeather, © 2016

Note: Actual official high and low records may vary slightly from our data, if they occured in-between our weather recording intervals... More about our weather records

Advertising

Dawson Creek Weather History for the Previous 24 Hours

 ConditionsComfort  
Time TempWeatherWind HumidityBarometerVisibility
11:00 AM
Sat, Feb 6
36 °FBroken clouds.24 mph52%29.87 "Hg9 mi
10:00 AM34 °FSunny.23 mph56%29.83 "Hg9 mi
9:00 AM34 °FClear.24 mph56%29.77 "Hg9 mi
8:00 AM36 °FClear.29 mph52%29.70 "Hg9 mi
7:00 AM37 °FPassing clouds.28 mph48%29.63 "Hg9 mi
6:00 AM39 °FPassing clouds.30 mph52%29.57 "Hg9 mi
5:00 AM41 °FMostly cloudy.26 mph53%29.53 "Hg9 mi
4:00 AM41 °FMostly cloudy.30 mph57%29.47 "Hg9 mi
3:00 AM41 °FOvercast.22 mph61%29.43 "Hg9 mi
2:00 AM43 °FMostly cloudy.16 mph61%29.39 "Hg9 mi
1:00 AM41 °FMostly cloudy.9 mph70%29.36 "Hg9 mi
12:00 AM39 °FPassing clouds.12 mph75%29.37 "Hg9 mi
11:00 PM
Fri, Feb 5
37 °FOvercast.3 mph81%29.39 "Hg9 mi
10:00 PM39 °FMostly cloudy.3 mph75%29.40 "Hg9 mi
9:00 PM39 °FOvercast.2 mph75%29.43 "Hg9 mi
8:00 PM41 °FOvercast.6 mph70%29.45 "Hg9 mi
7:00 PM41 °FPassing clouds.2 mph66%29.47 "Hg9 mi
6:00 PM43 °FPartly sunny.8 mph61%29.49 "Hg9 mi
5:00 PM43 °FScattered clouds.6 mph61%29.53 "Hg9 mi
4:00 PM45 °FOvercast.14 mph57%29.56 "Hg9 mi
3:00 PM45 °FScattered clouds.12 mph57%29.58 "Hg9 mi
2:00 PM46 °FSunny.20 mph53%29.59 "Hg9 mi
1:00 PM46 °FPassing clouds.16 mph53%29.61 "Hg9 mi
12:00 PM45 °FSunny.14 mph57%29.62 "Hg9 mi
Weather by CustomWeather, © 2016

See weather overviewHow to use our weather pages